TimeCST,TemperatureF,Dew PointF,Humidity,Sea Level PressureIn,VisibilityMPH,Wind Direction,Wind SpeedMPH,Gust SpeedMPH,PrecipitationIn,Events,Conditions,WindDirDegrees,DateUTC
12:15 AM,30.2,30.2,100,29.74,1.0,NW,3.5,-,N/A,Snow,Snow,320,2012-12-10 06:15:00
12:35 AM,30.2,30.2,100,29.74,2.5,NW,3.5,-,N/A,Snow,Light Snow,310,2012-12-10 06:35:00
12:55 AM,30.2,30.2,100,29.74,3.0,NW,3.5,-,N/A,Snow,Light Snow,320,2012-12-10 06:55:00
1:15 AM,30.2,30.2,100,29.74,10.0,NW,3.5,-,N/A,,Overcast,320,2012-12-10 07:15:00
1:35 AM,30.2,30.2,100,29.74,10.0,NW,3.5,-,N/A,,Overcast,320,2012-12-10 07:35:00
1:55 AM,30.2,30.2,100,29.75,10.0,NNW,4.6,-,N/A,,Overcast,330,2012-12-10 07:55:00
2:15 AM,30.2,30.2,100,29.75,10.0,NNW,3.5,-,N/A,,Overcast,340,2012-12-10 08:15:00
2:55 AM,30.2,28.4,93,29.76,10.0,NNW,3.5,-,N/A,,Overcast,340,2012-12-10 08:55:00
3:15 AM,30.2,28.4,93,29.76,10.0,North,3.5,-,N/A,,Mostly Cloudy,350,2012-12-10 09:15:00
3:35 AM,30.2,28.4,93,29.76,10.0,North,3.5,-,N/A,,Overcast,350,2012-12-10 09:35:00
3:55 AM,30.2,28.4,93,29.76,10.0,North,3.5,-,N/A,,Overcast,350,2012-12-10 09:55:00
4:15 AM,30.2,28.4,93,29.77,10.0,NNW,3.5,-,N/A,,Overcast,330,2012-12-10 10:15:00
4:35 AM,30.2,28.4,93,29.78,10.0,NNW,3.5,-,N/A,,Overcast,340,2012-12-10 10:35:00
4:55 AM,28.4,28.4,100,29.78,10.0,North,3.5,-,N/A,,Mostly Cloudy,350,2012-12-10 10:55:00
5:15 AM,28.4,28.4,100,29.79,5.0,NNW,3.5,-,N/A,Snow,Light Snow,330,2012-12-10 11:15:00
5:35 AM,28.4,28.4,100,29.80,4.0,NNW,3.5,-,N/A,Snow,Light Snow,330,2012-12-10 11:35:00
5:55 AM,28.4,28.4,100,29.81,5.0,NNW,3.5,-,N/A,Snow,Light Snow,330,2012-12-10 11:55:00
6:15 AM,28.4,28.4,100,29.82,10.0,North,3.5,-,N/A,Snow,Light Snow,350,2012-12-10 12:15:00
6:35 AM,28.4,28.4,100,29.81,10.0,North,4.6,-,N/A,Snow,Light Snow,350,2012-12-10 12:35:00
6:55 AM,28.4,28.4,100,29.82,10.0,NNW,5.8,-,N/A,Snow,Light Snow,340,2012-12-10 12:55:00
7:15 AM,28.4,26.6,93,29.83,10.0,North,3.5,-,N/A,,Overcast,360,2012-12-10 13:15:00
7:35 AM,28.4,26.6,93,29.83,10.0,North,3.5,-,N/A,,Overcast,360,2012-12-10 13:35:00
7:55 AM,28.4,26.6,93,29.84,10.0,North,3.5,-,N/A,,Overcast,350,2012-12-10 13:55:00
8:15 AM,28.4,26.6,93,29.85,10.0,North,3.5,-,N/A,,Overcast,350,2012-12-10 14:15:00
8:35 AM,28.4,26.6,93,29.86,10.0,Calm,Calm,-,N/A,,Overcast,0,2012-12-10 14:35:00
8:55 AM,28.4,26.6,93,29.85,10.0,Calm,Calm,-,N/A,,Overcast,0,2012-12-10 14:55:00
9:15 AM,28.4,26.6,93,29.86,10.0,NNW,4.6,-,N/A,,Overcast,330,2012-12-10 15:15:00
9:35 AM,28.4,26.6,93,29.87,10.0,NW,3.5,-,N/A,,Overcast,310,2012-12-10 15:35:00
9:55 AM,28.4,26.6,93,29.87,10.0,NW,3.5,-,N/A,,Overcast,320,2012-12-10 15:55:00
10:15 AM,28.4,26.6,93,29.88,10.0,West,5.8,-,N/A,,Overcast,280,2012-12-10 16:15:00
10:35 AM,26.6,24.8,93,29.88,10.0,West,4.6,-,N/A,,Overcast,280,2012-12-10 16:35:00
10:55 AM,28.4,24.8,86,29.88,10.0,WNW,4.6,-,N/A,,Overcast,290,2012-12-10 16:55:00
11:15 AM,28.4,26.6,93,29.87,10.0,West,4.6,-,N/A,,Overcast,260,2012-12-10 17:15:00
11:35 AM,28.4,26.6,93,29.87,10.0,WNW,3.5,-,N/A,,Overcast,290,2012-12-10 17:35:00
11:55 AM,26.6,24.8,93,29.87,10.0,WNW,5.8,-,N/A,,Overcast,300,2012-12-10 17:55:00
12:15 PM,26.6,24.8,93,29.87,10.0,West,4.6,-,N/A,,Overcast,280,2012-12-10 18:15:00
12:35 PM,26.6,24.8,93,29.87,10.0,West,4.6,-,N/A,,Overcast,270,2012-12-10 18:35:00
12:55 PM,26.6,24.8,93,29.87,10.0,West,5.8,-,N/A,,Overcast,260,2012-12-10 18:55:00
1:15 PM,26.6,23.0,86,29.87,10.0,West,5.8,-,N/A,,Overcast,280,2012-12-10 19:15:00
1:35 PM,24.8,23.0,93,29.87,10.0,West,8.1,-,N/A,,Overcast,260,2012-12-10 19:35:00
1:55 PM,24.8,23.0,93,29.87,10.0,WNW,5.8,-,N/A,,Overcast,290,2012-12-10 19:55:00
2:15 PM,24.8,23.0,93,29.87,10.0,West,5.8,-,N/A,,Overcast,270,2012-12-10 20:15:00
2:35 PM,24.8,21.2,86,29.87,10.0,West,3.5,-,N/A,,Overcast,270,2012-12-10 20:35:00
2:55 PM,24.8,21.2,86,29.87,10.0,West,4.6,-,N/A,,Overcast,270,2012-12-10 20:55:00
3:15 PM,24.8,21.2,86,29.88,10.0,West,3.5,-,N/A,,Overcast,260,2012-12-10 21:15:00
3:35 PM,24.8,21.2,86,29.88,10.0,WSW,3.5,-,N/A,,Overcast,250,2012-12-10 21:35:00
3:55 PM,23.0,21.2,93,29.89,10.0,WSW,4.6,-,N/A,,Overcast,240,2012-12-10 21:55:00
4:15 PM,23.0,21.2,93,29.89,10.0,WSW,3.5,-,N/A,,Overcast,250,2012-12-10 22:15:00
4:35 PM,23.0,21.2,93,29.89,7.0,WSW,3.5,-,N/A,Snow,Light Snow,240,2012-12-10 22:35:00
4:55 PM,21.2,21.2,100,29.90,7.0,WSW,3.5,-,N/A,Snow,Light Snow,240,2012-12-10 22:55:00
5:15 PM,21.2,21.2,100,29.90,7.0,WSW,4.6,-,N/A,Snow,Light Snow,250,2012-12-10 23:15:00
5:35 PM,21.2,21.2,100,29.90,10.0,West,3.5,-,N/A,,Mostly Cloudy,270,2012-12-10 23:35:00
5:55 PM,21.2,21.2,100,29.91,5.0,WSW,3.5,-,N/A,Snow,Light Snow,250,2012-12-10 23:55:00
6:15 PM,21.2,19.4,93,29.91,5.0,West,4.6,-,N/A,Snow,Light Snow,260,2012-12-11 00:15:00
6:35 PM,21.2,19.4,93,29.91,5.0,West,3.5,-,N/A,Snow,Light Snow,270,2012-12-11 00:35:00
6:55 PM,21.2,19.4,93,29.92,7.0,West,5.8,-,N/A,Snow,Light Snow,260,2012-12-11 00:55:00
7:15 PM,21.2,19.4,93,29.92,10.0,WSW,4.6,-,N/A,Snow,Light Snow,250,2012-12-11 01:15:00
7:35 PM,21.2,19.4,93,29.92,5.0,West,3.5,-,N/A,Snow,Light Snow,270,2012-12-11 01:35:00
7:55 PM,21.2,19.4,93,29.93,7.0,West,4.6,-,N/A,Snow,Light Snow,260,2012-12-11 01:55:00
8:15 PM,21.2,19.4,93,29.93,10.0,Calm,Calm,-,N/A,Snow,Light Snow,0,2012-12-11 02:15:00
8:55 PM,19.4,17.6,93,29.92,10.0,WSW,3.5,-,N/A,Snow,Light Snow,250,2012-12-11 02:55:00
9:15 PM,19.4,17.6,93,29.92,10.0,WSW,3.5,-,N/A,Snow,Light Snow,250,2012-12-11 03:15:00
9:35 PM,19.4,17.6,93,29.92,10.0,Calm,Calm,-,N/A,,Overcast,0,2012-12-11 03:35:00
9:55 PM,19.4,17.6,93,29.92,10.0,Calm,Calm,-,N/A,,Overcast,0,2012-12-11 03:55:00
10:15 PM,19.4,17.6,93,29.92,10.0,Calm,Calm,-,N/A,,Overcast,0,2012-12-11 04:15:00
10:35 PM,19.4,17.6,93,29.92,10.0,Calm,Calm,-,N/A,Snow,Light Snow,0,2012-12-11 04:35:00
10:55 PM,19.4,17.6,93,29.91,10.0,Calm,Calm,-,N/A,,Overcast,0,2012-12-11 04:55:00
11:15 PM,19.4,17.6,93,29.92,10.0,Calm,Calm,-,N/A,,Overcast,0,2012-12-11 05:15:00
11:35 PM,19.4,17.6,93,29.92,10.0,Calm,Calm,-,N/A,,Overcast,0,2012-12-11 05:35:00
11:55 PM,19.4,17.6,93,29.91,10.0,Calm,Calm,-,N/A,,Overcast,0,2012-12-11 05:55:00